Theta_e
309 309 309 309 309 309 309 309 309 309 309 309 309 309 309 309 309 309 308 309 308 308 308 308 308 308 308 308 308 308 309 310 312 313 314 314 313 313 313 313 313 313 315 315 313 313 314 315 316 316 317 316 317 318 318 318 318 318 320 319 316 317 318 318 318 317 316 316 316 315 313 314 316 314 312 311 311 313 314 314 314 314 313 314 315 313 310 311
310 309 309 310 309 310 310 310 309 310 309 309 309 309 309 309 309 309 309 309 309 309 309 309 309 309 308 308 308 309 310 311 312 313 313 313 315 314 314 314 313 313 314 315 314 314 314 314 315 316 317 317 316 318 319 319 319 319 320 318 317 319 318 317 317 316 315 316 316 315 313 313 314 315 313 313 315 314 314 315 315 314 314 315 315 312 311 311
310 310 310 310 310 310 310 310 310 310 310 310 310 310 310 309 309 309 309 309 309 310 310 310 310 310 309 308 309 309 310 311 312 314 313 313 315 314 316 315 314 313 314 315 314 314 314 314 315 316 316 316 316 317 319 319 319 319 319 318 319 320 318 315 315 316 315 315 316 316 313 312 313 313 312 313 315 315 315 316 316 316 315 316 316 315 312 311
311 311 311 310 310 310 310 310 310 310 310 310 311 310 310 310 310 310 310 310 310 310 310 310 310 309 310 310 309 309 311 313 313 314 314 315 315 314 316 316 314 314 314 314 314 313 313 314 315 315 316 316 316 317 318 319 319 318 317 319 319 318 317 316 315 315 315 313 314 314 313 313 313 311 312 314 315 315 316 316 316 316 316 317 316 316 315 313
312 312 312 312 311 311 311 311 311 311 312 312 312 312 312 312 312 312 311 311 311 310 310 310 310 309 309 309 309 310 312 315 314 315 315 315 315 315 316 316 315 314 314 314 313 312 313 314 314 314 315 315 316 317 317 317 317 317 317 318 318 316 316 317 315 314 313 311 312 313 314 314 312 311 312 313 314 316 316 316 317 316 316 316 315 317 316 314
314 314 313 313 313 312 312 312 313 313 314 313 313 313 313 313 313 313 313 313 313 312 312 311 311 310 309 309 310 312 313 314 313 315 316 316 315 314 315 316 315 314 314 314 313 313 313 314 314 315 315 315 316 316 315 316 316 316 317 317 318 317 316 317 315 314 312 311 313 314 314 313 313 314 314 313 314 315 316 316 316 316 316 316 314 315 315 314
314 314 314 314 314 314 313 313 313 313 313 313 313 313 313 313 313 313 314 313 314 314 314 313 313 312 310 310 312 313 313 314 313 314 315 316 315 314 315 315 315 314 314 314 313 313 313 313 314 315 315 314 315 315 314 315 315 316 317 316 316 316 316 316 315 314 312 313 314 314 313 314 315 316 315 313 314 315 315 315 315 316 316 315 312 312 313 314
315 315 315 315 314 314 313 313 313 312 313 313 313 313 313 313 312 313 313 313 313 313 314 314 313 313 312 311 313 312 312 314 313 313 313 314 314 314 315 315 315 314 314 314 314 314 313 313 314 313 314 315 313 313 313 314 315 316 316 316 315 314 315 316 315 313 312 313 314 313 314 315 316 315 313 313 314 314 314 315 314 315 315 313 312 312 312 313
315 315 315 315 314 314 313 313 313 313 313 314 314 314 313 313 313 312 312 312 312 312 312 313 312 313 313 312 312 312 312 313 313 313 313 312 314 315 316 316 315 314 314 314 313 314 314 314 314 313 314 314 312 313 312 313 314 315 316 316 315 314 314 314 313 313 312 313 313 313 314 315 314 313 313 314 314 314 314 314 314 314 314 313 312 311 312 312
315 315 315 315 314 314 314 313 313 314 314 315 315 315 315 315 314 313 313 312 312 312 311 312 311 312 312 312 313 314 313 313 313 313 313 312 315 316 316 316 315 314 314 313 312 314 314 314 315 313 313 312 311 312 312 312 312 313 313 313 313 313 313 312 312 312 311 311 312 312 313 314 313 311 313 314 314 314 314 314 314 313 313 312 312 312 312 312
315 316 316 315 315 314 313 313 314 315 316 316 316 317 317 317 316 315 314 314 313 312 312 311 311 311 312 312 315 316 314 313 313 313 314 313 315 316 316 316 315 314 314 312 312 313 314 314 313 312 312 312 311 311 310 311 311 310 310 311 312 312 312 312 311 311 310 311 311 311 312 313 312 311 313 314 313 312 312 313 313 313 312 312 312 312 312 312
316 316 315 315 315 314 314 314 315 317 318 317 318 319 319 319 318 317 316 314 314 313 312 311 311 311 311 311 314 316 313 313 313 313 313 314 315 316 316 316 315 314 314 313 313 313 312 312 312 312 312 311 311 311 309 309 309 309 309 311 312 312 312 313 312 311 310 310 310 310 311 312 312 311 312 313 313 311 311 312 312 312 313 313 313 312 311 311
316 316 315 315 315 316 317 317 319 320 319 318 320 320 320 320 318 316 315 314 314 313 312 311 310 310 311 313 313 314 313 312 312 311 311 313 314 315 315 315 315 314 314 314 312 312 311 311 312 312 310 310 312 310 309 308 308 310 310 310 311 312 313 313 312 309 309 310 309 310 310 312 314 313 313 314 312 311 310 311 312 312 312 313 313 312 311 311
315 315 315 316 317 318 320 321 322 321 320 320 321 321 320 318 316 315 314 314 313 312 312 310 310 310 311 313 312 312 313 312 311 311 310 312 313 313 313 313 313 313 313 312 310 311 310 310 311 311 309 310 311 309 310 309 309 311 311 310 311 312 313 313 311 308 309 309 308 310 310 312 313 314 314 313 311 309 310 310 311 312 312 312 312 312 311 311
315 316 316 317 319 321 322 322 323 322 321 321 322 321 319 316 315 314 314 313 313 312 311 310 310 310 311 312 312 311 312 312 312 311 311 311 312 312 312 311 312 312 311 310 310 310 309 310 311 311 310 309 309 310 311 311 310 311 311 312 313 312 313 314 312 310 311 309 307 310 311 312 313 313 314 312 309 308 309 310 311 311 311 311 311 311 311 312
316 317 318 319 321 322 323 323 323 323 321 322 323 320 316 315 315 314 313 312 312 311 310 311 310 310 312 313 312 311 311 311 312 312 311 311 311 312 311 310 310 310 310 310 310 309 308 310 310 310 310 309 310 311 312 312 313 312 312 313 314 313 313 313 312 312 311 309 308 309 311 312 312 313 313 311 309 309 309 310 311 311 311 311 311 311 311 311
317 318 320 321 322 323 323 323 323 323 322 322 322 319 315 315 315 313 312 312 312 311 310 312 310 309 313 312 311 312 310 310 311 312 312 311 311 311 311 311 311 311 310 310 309 309 309 310 309 310 310 310 311 312 314 315 314 314 313 314 313 313 312 312 313 312 310 309 309 309 310 311 311 312 312 312 311 310 310 311 311 311 312 311 312 312 311 311
319 320 321 322 323 323 323 324 323 323 322 321 321 318 315 316 315 313 313 312 313 312 311 311 310 314 316 312 312 312 309 309 311 311 311 311 310 310 311 311 311 311 311 311 310 310 310 310 310 312 313 311 311 312 315 316 314 314 314 314 313 312 311 311 312 312 311 310 310 310 310 310 311 311 311 311 311 310 311 311 311 311 311 312 312 312 312 312
320 321 322 323 323 323 324 323 323 323 322 322 320 316 314 316 314 312 311 312 315 319 319 314 313 318 318 314 312 311 310 310 311 311 311 311 310 310 310 310 311 312 312 312 312 311 311 312 312 314 314 314 313 313 315 316 315 313 313 313 313 312 312 312 312 311 311 310 310 310 311 311 311 311 311 311 311 311 311 311 311 311 311 312 312 312 313 313
322 322 322 323 323 323 323 323 323 323 321 322 319 315 317 319 318 317 312 313 317 319 320 318 314 316 317 316 314 311 311 311 311 311 310 309 310 310 310 309 311 312 312 314 314 310 310 313 314 315 315 315 315 314 314 314 312 311 312 312 313 313 313 312 312 312 310 309 310 311 311 311 312 311 311 311 311 311 311 311 312 312 312 313 313 313 314 313
322 322 322 322 322 322 323 322 322 323 321 321 319 318 319 318 321 321 315 316 318 314 316 316 314 314 316 314 311 310 311 311 311 311 310 309 310 312 311 310 312 313 312 313 312 309 309 314 315 315 315 314 312 312 311 312 311 311 312 313 313 313 313 312 312 312 310 309 311 311 311 311 311 311 311 311 312 311 312 312 312 312 312 313 314 314 313 312
322 321 321 322 323 322 323 323 323 322 321 320 318 316 315 313 314 314 312 316 317 313 313 312 311 312 312 311 309 310 312 312 313 312 310 309 310 312 312 311 312 314 312 311 312 312 312 314 314 314 314 311 309 309 309 310 311 311 312 313 313 313 313 313 312 311 309 308 311 311 310 311 311 311 312 312 312 312 312 312 312 313 313 314 314 313 312 312
323 322 321 323 324 323 324 323 323 322 322 320 317 315 313 312 310 309 310 314 315 313 311 310 310 310 311 311 309 310 312 313 314 313 311 310 310 311 311 311 312 313 312 312 314 316 316 315 313 313 312 311 310 309 309 310 311 312 312 313 313 313 314 314 312 311 308 308 310 310 310 312 312 312 313 312 311 311 312 312 313 314 313 314 313 311 311 311
324 323 323 323 324 325 324 323 323 323 322 320 317 315 314 311 308 308 310 313 315 314 310 309 310 310 310 310 309 311 312 312 313 312 311 311 311 310 311 312 312 312 312 312 314 316 317 314 310 311 311 310 311 311 310 311 312 313 314 313 314 314 314 313 313 311 310 311 310 310 313 314 314 314 314 313 311 311 313 313 313 314 313 312 312 311 311 311
325 325 325 324 324 325 324 324 324 322 322 320 317 317 315 310 308 308 311 316 318 315 310 309 310 310 309 308 309 310 310 310 310 309 309 310 310 310 310 310 311 314 314 312 312 314 315 312 309 311 311 310 311 311 312 313 313 315 315 314 313 313 313 313 314 312 312 313 311 311 315 316 315 314 315 315 314 313 315 315 314 314 313 312 312 311 311 312
324 324 324 324 324 324 324 324 323 321 322 320 318 317 314 311 309 308 311 318 323 320 314 311 311 310 308 308 308 308 311 312 308 306 308 309 309 309 311 310 309 312 312 311 312 312 313 310 309 312 312 312 312 312 313 313 313 314 315 314 313 312 313 313 313 312 313 314 312 310 314 316 315 314 314 315 314 314 315 316 316 315 313 311 310 310 311 312
323 323 323 323 323 323 324 324 321 321 324 321 319 318 315 312 309 308 313 323 326 321 315 311 310 309 308 307 306 309 314 312 307 307 308 309 309 308 311 311 310 310 308 310 314 313 311 310 309 311 312 313 312 313 314 313 312 315 315 315 314 313 313 313 312 312 312 313 312 311 312 314 316 315 314 314 314 314 315 316 316 315 312 311 309 309 310 310
322 321 322 322 322 323 323 323 321 322 324 322 319 319 317 312 308 309 318 329 326 318 314 310 308 308 307 306 306 308 309 307 309 310 305 307 308 307 311 312 311 311 307 310 317 313 311 313 313 312 312 312 313 314 315 313 312 315 312 310 311 311 311 311 311 312 311 311 313 313 312 315 317 315 312 312 314 315 316 315 316 313 311 310 309 309 309 309
319 320 321 321 322 322 322 322 322 322 322 321 319 320 317 312 310 313 322 328 323 316 313 311 308 308 308 308 307 307 306 305 309 309 305 307 308 307 310 309 309 311 308 309 316 314 311 310 311 312 313 313 313 313 313 314 313 312 310 309 311 310 310 310 311 312 311 313 315 314 313 316 319 316 313 312 314 316 316 315 314 312 310 310 310 309 309 309
317 318 319 321 321 321 321 321 321 322 321 320 320 318 314 313 316 322 326 325 320 315 313 310 311 310 309 310 310 308 308 308 307 307 308 308 308 307 306 305 306 310 310 309 312 313 309 305 306 310 313 312 313 310 308 313 314 311 310 312 312 311 309 309 310 311 312 316 317 315 314 316 318 318 315 314 313 313 314 314 313 313 310 309 309 308 307 307
315 315 316 319 320 320 320 321 321 321 321 320 319 316 316 320 323 326 326 320 316 316 314 312 312 310 310 313 313 310 309 309 307 308 310 308 309 309 308 308 309 310 312 311 312 312 309 307 308 311 312 310 311 310 307 308 310 310 310 311 312 313 311 311 311 311 316 320 317 313 314 315 317 317 314 314 312 310 311 312 313 314 311 308 308 307 306 306
313 313 314 316 319 319 319 320 320 320 320 319 317 317 320 324 324 325 323 317 318 319 315 314 313 312 312 313 315 313 311 311 309 309 312 311 312 312 312 314 314 315 317 315 315 315 312 311 311 311 310 308 310 311 309 307 308 309 310 310 313 315 316 317 316 314 318 319 312 309 312 314 316 316 313 314 313 311 311 311 312 312 309 306 306 306 305 304
311 311 312 313 316 317 318 319 319 319 320 317 317 319 321 323 323 324 323 320 320 318 316 316 313 312 314 314 318 316 313 315 311 309 312 312 312 314 315 315 315 317 318 316 316 316 317 315 311 310 310 309 310 312 312 312 309 309 310 312 315 318 321 323 321 318 319 318 310 307 312 314 315 315 314 314 313 311 310 310 310 308 306 306 305 304 303 302
308 309 310 311 313 314 315 317 318 319 318 316 318 321 321 322 323 322 324 323 320 317 317 317 314 313 314 315 320 317 315 318 314 310 312 311 311 314 315 314 312 314 314 314 315 316 319 319 313 313 314 311 310 312 317 316 311 310 312 313 316 320 323 323 323 321 322 321 313 309 313 317 317 315 312 311 311 309 309 308 307 306 305 305 303 301 301 299
304 305 306 307 310 312 314 315 317 318 317 316 320 322 321 322 321 320 322 321 320 320 317 316 316 317 317 316 318 316 315 318 315 311 312 312 314 315 315 316 314 312 313 315 316 314 317 320 316 314 314 310 311 314 317 316 312 311 310 311 314 317 320 320 321 322 321 321 318 314 315 316 315 315 313 313 312 309 308 307 306 306 304 303 301 299 298 297
302 302 303 304 306 310 312 315 317 317 316 318 321 321 320 320 319 319 320 317 318 321 318 317 318 319 319 318 317 314 313 315 314 312 312 313 314 315 317 319 315 311 313 315 317 315 315 318 315 311 310 309 310 312 313 314 313 311 309 312 314 316 317 316 318 319 318 318 320 318 317 316 316 316 315 314 313 309 308 306 304 304 302 300 299 298 297 296
300 300 301 302 304 307 309 313 317 315 316 320 322 320 319 319 317 318 320 316 315 317 318 317 318 319 319 319 317 315 313 314 313 313 314 313 314 315 316 317 313 312 312 313 316 316 315 317 316 314 313 310 306 308 311 313 312 310 311 313 314 314 313 312 315 318 317 319 320 318 318 318 318 318 315 314 313 310 307 305 303 301 300 299 298 297 296 295
300 301 302 302 302 304 306 311 315 315 317 321 321 320 319 318 317 317 317 315 314 317 317 316 317 319 318 317 317 315 314 315 314 313 315 314 314 315 316 316 312 310 310 310 312 314 314 316 317 315 313 310 306 308 312 311 310 310 311 311 311 314 314 313 315 317 318 320 320 319 319 318 318 319 316 314 312 310 306 303 301 300 298 298 297 296 295 294
301 303 306 305 303 303 305 311 314 315 318 321 320 320 318 317 319 317 315 314 316 318 317 317 318 318 318 317 317 317 315 315 315 315 316 315 316 315 313 313 312 309 308 308 310 313 313 316 318 314 311 310 309 310 312 311 310 310 310 309 310 312 313 314 314 314 318 320 319 320 320 319 318 317 314 311 309 307 305 303 300 298 297 297 296 295 295 294
302 306 309 308 305 304 306 312 315 316 320 321 319 319 317 316 317 315 313 314 316 316 316 318 318 317 318 318 317 317 317 317 317 316 317 316 317 316 313 312 313 311 310 309 311 314 314 315 317 315 313 312 312 312 313 313 312 310 310 311 310 311 312 313 312 313 316 317 319 320 319 319 319 316 310 306 305 304 303 301 300 298 297 296 295 295 294 294
304 307 309 308 307 307 309 313 316 317 320 320 317 316 316 315 314 314 313 313 314 314 313 316 316 316 317 317 316 316 317 318 317 317 318 316 314 316 312 308 311 313 312 313 314 314 314 315 315 315 315 314 315 315 313 313 314 313 313 313 313 313 314 314 315 315 314 315 317 317 318 318 316 310 305 302 302 302 301 300 298 297 296 296 295 294 294 293
304 306 307 308 308 308 311 314 314 316 318 318 316 314 314 314 313 313 313 313 314 315 313 314 316 316 316 316 316 316 316 317 316 315 317 315 314 315 309 304 307 311 312 315 316 313 312 313 315 315 315 314 315 315 313 313 314 313 313 313 313 314 314 316 317 316 315 315 315 316 318 317 310 303 302 301 299 299 298 298 297 296 295 295 294 294 293 293
304 305 305 306 308 309 312 313 313 314 315 315 315 314 313 313 313 313 313 313 314 314 315 315 315 314 315 315 315 314 315 316 315 314 314 315 313 310 305 304 307 309 310 313 315 312 310 311 314 315 315 314 314 313 312 312 312 313 313 312 313 314 314 314 313 313 314 315 315 316 318 318 309 301 300 299 297 296 296 296 296 295 294 294 294 294 293 293
302 303 303 305 307 310 312 312 313 314 313 313 313 313 312 313 313 313 312 314 315 314 315 316 315 313 314 315 314 314 315 314 314 314 314 316 313 305 303 305 307 308 310 311 312 312 310 311 314 314 315 314 314 313 312 311 312 312 312 311 312 312 312 312 311 311 312 314 315 315 316 318 313 304 300 299 297 296 295 294 295 294 294 294 294 294 293 293
299 301 302 302 304 307 310 310 311 312 312 312 312 311 311 311 312 312 312 312 314 314 314 314 314 313 314 314 314 314 315 313 313 313 313 314 312 306 304 305 305 307 308 307 308 310 309 311 313 313 314 314 313 313 313 312 311 310 310 310 311 311 311 310 310 311 313 314 314 314 314 315 314 308 305 304 301 297 295 294 294 294 293 293 293 293 293 293
299 300 302 303 303 305 306 306 308 310 311 311 311 310 310 311 310 311 311 311 311 312 313 313 312 312 312 313 313 312 312 311 311 312 311 312 312 307 303 303 304 305 305 304 306 307 307 310 312 312 312 312 312 312 312 311 310 310 310 310 309 309 309 309 309 310 310 310 310 310 310 311 310 307 308 308 303 298 296 294 294 293 293 293 293 293 293 293
299 300 302 303 305 306 305 304 306 309 309 310 311 310 309 310 309 309 310 310 310 311 312 312 312 311 311 311 312 311 311 311 311 311 311 311 311 306 301 301 301 301 302 303 304 305 306 308 309 310 310 310 310 310 309 307 307 308 308 307 307 307 307 307 307 307 307 308 308 308 307 308 307 306 307 305 300 296 295 294 293 293 293 293 293 293 293 292
298 299 298 299 303 305 305 305 305 307 307 307 309 309 309 309 309 309 310 310 308 309 311 311 310 311 311 310 311 311 311 311 310 310 310 309 308 305 302 301 299 298 299 301 301 303 304 305 307 307 307 307 306 306 305 304 304 305 305 305 305 305 305 306 305 305 305 306 306 305 305 306 305 304 304 300 295 294 294 293 293 292 293 293 293 293 293 292
296 297 295 295 299 300 301 301 301 303 305 306 307 308 308 309 309 309 309 309 308 308 309 310 310 308 308 308 309 310 310 310 309 308 308 307 306 305 304 303 300 297 297 298 299 301 302 303 304 303 303 303 303 303 303 302 302 302 302 302 302 302 303 303 303 303 304 304 304 304 304 304 303 301 300 296 293 293 292 292 292 292 292 293 293 293 293 293
295 297 295 295 297 296 296 297 298 301 303 303 305 306 306 307 308 308 307 306 307 308 308 308 308 304 304 306 306 306 307 307 306 305 305 305 304 302 302 303 301 298 297 297 299 300 302 303 302 300 300 301 301 301 301 300 300 299 299 299 299 299 300 300 300 301 301 302 302 301 301 302 299 296 295 294 293 292 292 291 292 291 292 292 292 293 293 293
294 295 295 296 297 296 295 296 297 299 300 301 303 303 304 304 303 304 304 300 301 305 305 305 304 302 302 303 303 302 303 303 303 302 302 302 301 300 300 300 299 298 297 297 298 299 300 300 300 299 300 300 300 300 299 297 297 296 296 296 296 297 297 298 299 300 299 299 299 299 300 300 297 294 293 293 292 291 291 291 291 291 292 292 292 292 293 293
293 293 294 295 296 295 295 294 295 297 298 299 300 300 301 299 297 299 302 298 295 297 299 299 300 301 301 302 302 300 299 298 298 297 297 297 296 296 297 297 296 296 297 296 297 297 298 298 298 299 299 299 299 297 295 294 294 294 295 295 295 295 295 296 297 297 297 298 298 299 298 296 295 294 292 291 292 291 291 291 291 291 291 291 292 292 292 292
Wind_Speed
3 3 4 4 4 4 4 4 4 4 4 4 5 5 5 5 6 6 7 7 7 7 8 8 8 8 9 9 9 9 11 13 12 7 8 8 5 5 7 6 5 12 14 10 10 10 8 6 6 5 5 3 1 0 1 1 0 3 3 3 4 4 4 4 7 5 1 5 5 4 5 7 7 3 2 1 6 9 9 10 10 9 11 15 12 9 8 7
3 3 3 3 3 4 4 4 4 5 5 5 5 6 6 6 7 7 8 8 8 8 8 8 8 9 9 9 9 9 12 15 11 10 13 9 5 4 6 7 6 11 14 13 12 11 8 7 7 5 4 2 0 0 1 0 1 4 2 3 5 5 3 4 7 6 4 8 7 4 4 6 8 4 1 5 9 8 10 14 11 12 15 17 16 15 13 9
4 4 4 4 4 4 4 4 5 5 6 6 7 7 7 8 8 8 9 9 9 10 10 9 9 9 9 9 9 10 12 12 9 7 6 6 5 3 3 6 7 10 15 13 12 11 6 6 9 6 3 2 0 1 2 2 2 3 2 6 7 6 5 4 7 8 8 8 10 8 3 4 6 2 1 6 11 10 12 15 12 13 14 14 13 14 13 11
4 4 4 5 5 5 5 5 5 6 6 7 7 8 8 9 9 9 10 10 11 11 12 11 11 11 10 10 9 10 11 9 5 2 8 7 2 0 2 5 7 11 14 10 9 10 5 7 8 4 3 3 1 1 3 3 2 2 4 8 6 3 6 7 9 10 7 4 9 9 4 7 5 2 5 6 9 11 13 14 15 17 14 12 10 9 10 10
5 5 5 6 6 6 6 6 6 6 7 7 7 7 8 9 9 10 10 11 11 12 13 13 12 12 11 10 9 8 7 5 1 7 9 3 0 1 2 5 9 12 14 10 8 9 6 7 6 2 2 3 2 2 4 4 2 2 7 11 7 2 6 7 6 6 3 1 6 8 7 7 2 3 9 10 10 12 12 13 14 17 15 13 12 5 6 9
6 7 7 8 8 8 8 7 7 7 7 7 7 7 8 9 9 10 11 11 12 12 13 13 13 12 11 10 7 4 3 4 1 6 6 4 5 4 3 6 10 13 14 11 10 9 6 6 6 4 3 3 5 5 3 4 3 6 8 9 10 7 8 7 1 2 3 4 7 7 6 5 5 10 10 13 16 17 16 17 17 19 16 11 8 5 6 9
6 7 8 8 8 8 8 8 7 7 7 7 8 8 8 9 10 11 11 12 13 12 12 12 12 12 11 7 2 0 2 7 9 8 8 10 10 7 6 9 12 15 15 12 11 9 6 7 7 3 3 4 5 6 2 3 4 7 9 7 8 7 10 10 2 2 4 7 8 4 7 10 14 12 7 12 18 20 21 20 20 22 18 8 7 11 11 12
5 6 7 7 8 8 7 7 7 7 7 7 8 9 9 9 10 11 12 13 13 13 13 12 11 10 9 3 1 2 3 10 15 13 13 13 11 8 9 11 15 16 15 14 12 9 7 8 8 3 4 6 3 4 3 3 6 9 12 9 5 4 9 11 5 5 6 9 7 5 11 18 17 9 11 17 17 19 20 20 21 21 18 11 12 15 13 13
5 6 6 6 6 6 7 7 7 7 7 8 8 9 9 10 11 12 13 13 14 14 13 12 11 9 7 1 2 4 5 9 13 13 12 11 10 10 11 12 16 18 14 13 12 10 8 7 8 6 5 3 3 4 3 5 6 8 11 9 6 8 10 9 8 8 7 7 5 7 16 20 11 4 17 23 17 18 18 19 20 16 16 14 13 14 13 14
5 6 5 5 5 6 7 7 7 7 8 8 9 9 10 11 12 13 14 14 15 15 14 12 9 7 6 2 3 6 5 6 7 8 9 8 9 10 13 13 16 18 12 11 11 11 8 6 5 4 2 1 3 3 4 6 3 1 5 9 10 13 12 7 9 9 6 8 9 11 17 19 5 2 15 15 4 9 12 14 15 11 14 14 11 11 11 12
5 5 5 6 6 6 7 7 8 8 9 9 9 10 11 13 14 14 14 15 15 15 15 12 8 6 4 4 5 7 3 3 4 5 7 7 8 10 14 13 15 19 12 8 12 13 8 4 8 5 1 2 3 3 4 4 2 4 4 9 12 13 14 10 11 10 7 7 9 12 15 16 5 4 17 15 1 2 7 12 14 11 13 13 11 10 8 10
4 5 5 6 7 7 8 8 8 9 10 10 10 12 13 14 14 14 14 14 14 15 14 10 7 5 3 4 8 9 7 7 7 7 7 7 7 10 13 12 13 17 13 6 10 15 10 6 11 6 1 3 2 2 3 1 2 3 4 9 13 12 16 14 12 8 7 5 5 9 9 11 11 12 21 19 6 2 7 13 15 14 13 12 10 8 7 10
3 4 5 6 7 7 8 8 9 10 10 10 12 13 14 15 14 13 12 11 12 12 11 8 5 4 3 4 5 8 11 10 10 11 11 9 8 9 10 9 11 14 14 8 6 11 12 9 11 6 1 4 3 1 2 2 1 5 3 4 10 11 12 8 4 2 4 5 8 8 6 7 11 16 19 13 4 3 8 12 14 14 12 10 9 7 9 10
2 3 5 6 7 7 8 8 9 10 10 11 13 14 15 14 12 11 10 9 9 9 7 4 5 6 3 5 3 4 7 7 8 11 11 11 8 6 6 7 9 12 13 11 5 5 10 10 6 2 1 3 2 1 2 1 1 6 4 2 5 8 7 2 5 3 3 4 10 8 7 9 9 14 15 5 2 4 9 13 14 13 11 9 8 8 11 12
2 3 4 5 6 7 8 9 11 11 11 12 14 15 14 11 10 10 8 7 5 3 1 4 7 6 2 6 4 2 3 3 6 9 10 10 9 5 5 7 9 9 8 7 4 2 9 9 5 2 1 0 2 4 5 2 1 4 5 5 4 5 7 6 3 5 7 2 6 8 6 8 9 13 12 1 4 3 8 13 14 15 14 12 11 11 13 15
2 3 4 5 6 7 8 10 12 12 12 13 15 15 11 8 8 8 6 5 4 4 4 5 7 4 3 3 2 2 2 2 4 6 7 9 9 5 6 8 6 5 4 3 5 7 8 7 2 2 1 1 4 5 5 4 4 4 5 8 7 7 8 7 5 6 5 1 5 11 8 8 8 11 12 3 2 5 9 15 18 19 17 15 14 13 13 15
2 3 4 5 6 7 8 10 12 13 13 14 16 13 6 6 6 5 8 8 6 6 5 4 6 2 3 3 3 2 0 2 3 2 4 7 8 8 8 6 4 7 8 7 8 8 4 3 1 1 2 3 2 2 4 5 6 5 6 7 7 9 9 7 7 3 2 4 7 11 11 13 13 14 15 13 13 13 15 19 21 20 17 16 15 13 12 13
1 2 3 4 5 6 8 10 12 14 14 14 16 10 3 4 3 5 8 7 6 5 5 5 4 2 3 3 3 2 1 0 1 1 3 6 8 11 8 5 5 8 9 5 4 3 0 1 1 3 4 4 3 4 6 8 9 8 5 6 6 7 9 9 9 4 3 8 8 9 13 16 17 16 16 18 18 18 19 19 19 18 18 18 15 14 13 12
2 2 4 5 6 7 8 9 12 15 14 15 14 6 1 3 1 3 2 3 1 1 1 2 4 3 3 4 3 4 2 0 1 2 5 7 10 10 6 6 6 6 6 3 3 4 2 2 2 4 5 8 9 10 12 13 10 7 5 7 9 9 9 11 13 10 8 12 12 14 17 17 16 16 15 16 15 17 21 20 17 16 16 16 14 13 12 11
2 3 5 7 9 9 9 9 11 15 15 16 13 4 0 2 2 1 1 4 4 5 7 7 7 5 7 7 3 2 2 2 1 2 6 9 11 9 5 4 4 2 4 3 3 3 2 5 6 6 9 12 12 11 14 12 7 6 6 9 10 11 12 12 15 13 4 7 11 13 18 19 17 18 17 17 17 19 21 20 17 17 16 15 15 12 6 6
3 3 5 8 10 11 11 10 11 14 14 14 11 3 0 2 2 2 3 6 8 10 13 11 7 8 9 3 4 4 2 1 2 4 7 10 10 7 4 4 5 3 2 2 3 3 2 7 7 10 13 9 5 4 7 9 9 10 9 10 11 10 13 13 15 15 4 3 8 9 17 19 17 20 19 19 19 19 19 18 17 19 19 15 11 5 5 5
5 5 5 7 10 11 13 12 12 13 12 11 9 4 2 1 2 2 2 5 8 10 13 8 3 9 12 6 3 1 3 4 1 3 8 9 4 4 4 5 5 3 3 3 1 2 4 7 9 14 12 3 1 1 3 8 10 10 8 9 9 8 12 12 10 9 3 2 8 11 15 16 18 23 22 18 16 16 16 16 17 20 18 10 5 6 6 7
8 8 8 8 9 11 14 13 13 12 10 9 7 3 1 1 2 2 2 3 6 5 5 4 4 7 9 7 7 7 5 8 7 4 11 11 3 2 5 6 6 3 5 7 7 6 5 5 9 14 10 6 8 5 4 8 8 8 8 8 9 8 9 8 4 2 2 4 10 14 14 13 15 15 12 12 10 11 15 17 19 17 11 8 7 6 6 6
11 11 11 10 10 10 11 13 13 9 6 5 3 1 2 0 2 2 2 2 5 3 1 3 4 4 3 2 4 9 6 5 5 3 8 11 4 3 5 6 6 4 7 11 12 11 9 2 2 6 6 9 12 7 6 9 8 9 8 8 11 12 12 12 8 6 8 7 5 10 12 7 4 0 2 3 4 6 11 16 15 6 3 4 3 2 2 4
14 14 13 11 10 9 9 11 9 6 4 2 0 2 3 1 2 4 1 2 3 2 1 3 2 1 2 0 2 4 3 2 1 1 3 5 2 3 2 2 3 6 9 10 10 11 10 2 4 3 4 6 8 8 9 10 8 8 8 12 16 15 14 16 12 7 7 5 1 7 10 3 2 2 2 5 6 7 11 14 9 3 5 3 3 1 2 3
13 13 13 11 10 8 6 6 4 4 4 2 2 2 2 1 2 4 2 2 3 1 1 2 2 2 2 1 1 2 3 2 1 1 2 2 1 2 2 2 1 3 4 5 4 5 6 1 2 3 4 5 6 8 11 10 8 8 4 9 13 13 12 12 10 5 5 4 2 3 6 6 5 5 5 8 9 12 14 12 8 5 5 4 3 2 2 4
11 11 11 11 9 7 4 2 4 3 3 2 1 3 3 2 1 3 2 3 2 1 2 0 1 1 1 0 1 2 2 1 2 2 1 1 1 1 3 4 3 1 3 2 2 2 3 2 2 2 5 5 6 9 8 9 8 6 1 1 5 7 8 6 5 5 4 6 2 4 6 8 8 4 3 5 8 13 14 10 6 7 9 8 6 5 6 6
8 7 7 7 7 7 6 3 3 2 2 2 2 3 4 1 2 2 2 4 2 2 1 0 2 2 1 1 0 1 1 1 1 2 2 1 1 1 4 6 5 4 5 4 4 1 3 5 5 7 5 6 8 5 4 10 7 2 4 2 0 1 3 2 3 5 3 5 4 5 6 7 8 2 3 2 7 11 9 5 4 8 10 8 7 8 7 7
4 3 3 4 5 7 8 6 4 3 3 3 2 4 3 1 3 1 1 3 1 2 1 1 3 1 1 2 1 1 1 1 1 1 2 1 1 1 2 4 2 3 4 5 7 3 1 2 4 7 6 7 6 0 3 9 6 1 4 2 3 2 1 1 3 4 2 6 6 6 8 6 9 1 5 2 4 5 3 0 3 7 8 7 9 9 9 10
2 1 1 3 5 6 7 7 8 7 5 4 3 3 2 2 2 2 4 3 0 1 1 1 2 1 1 4 2 1 1 0 1 1 1 1 1 1 1 1 0 2 3 4 8 5 1 2 1 4 6 4 3 4 1 3 1 2 3 0 0 1 1 0 2 2 4 8 4 9 13 8 6 0 4 2 0 2 3 3 4 4 9 9 10 11 12 13
3 2 2 4 6 6 4 3 6 9 8 5 2 1 2 1 1 4 6 2 1 1 2 2 1 2 2 3 1 1 2 1 2 3 2 2 2 2 1 2 2 2 3 4 6 5 3 3 2 2 2 1 3 2 1 2 2 2 1 2 3 2 1 2 1 1 4 6 0 4 6 8 9 2 1 2 2 1 4 6 11 9 11 11 10 11 12 13
6 5 4 6 7 8 6 2 1 4 7 4 1 1 1 1 4 6 3 1 1 2 3 2 1 2 2 1 1 2 2 2 3 5 4 3 3 4 5 5 3 3 5 3 3 2 4 6 4 0 1 4 4 2 1 2 2 2 1 1 3 3 2 3 2 2 5 4 1 1 1 6 11 5 4 10 7 1 2 5 9 10 11 11 10 12 12 12
8 8 7 8 9 10 10 7 1 2 6 5 2 0 1 4 6 3 3 3 1 1 1 1 1 2 3 1 2 2 1 2 5 5 4 3 3 5 6 5 3 4 6 2 2 3 3 2 4 3 2 6 9 6 4 3 5 6 5 4 3 2 3 4 2 2 5 2 2 1 2 5 8 6 7 12 7 6 6 6 6 8 10 10 12 13 13 13
9 9 9 10 11 12 12 11 6 4 7 6 2 2 3 7 4 1 4 5 1 1 0 2 3 2 3 3 2 2 3 3 4 4 3 4 3 4 5 6 5 4 3 2 3 3 5 5 5 7 2 7 13 9 3 3 5 7 4 3 4 3 3 5 3 4 7 5 1 2 2 4 5 1 1 2 4 7 7 6 9 11 11 11 13 13 13 13
9 9 10 11 13 14 13 12 10 9 9 6 2 4 8 8 3 1 5 4 2 1 1 2 3 2 3 3 1 2 4 3 3 3 3 4 3 3 3 4 6 6 2 3 2 2 6 8 2 2 0 7 10 5 3 4 2 2 2 1 4 3 4 5 5 5 6 6 3 4 3 5 5 4 8 7 3 8 9 11 14 13 12 12 11 12 11 11
9 10 10 11 14 16 15 14 13 12 9 5 4 8 9 6 3 3 2 1 2 1 0 2 2 3 5 3 2 1 2 2 1 2 3 3 2 3 3 2 5 9 6 4 3 2 5 5 3 3 1 4 2 1 2 1 1 2 3 3 2 0 2 4 5 2 1 5 5 4 6 7 7 8 9 7 5 12 11 12 13 11 11 11 10 9 9 9
8 7 7 10 15 17 17 16 16 15 9 5 7 8 4 3 4 4 1 1 0 2 1 3 3 3 4 2 2 1 2 2 1 2 2 1 2 3 4 2 2 8 6 1 2 2 3 5 2 3 2 1 1 2 0 1 0 3 3 2 0 1 1 2 3 1 3 7 5 5 12 10 7 6 2 6 9 10 9 10 10 9 10 11 10 9 9 9
4 3 5 10 15 15 16 19 18 14 7 5 10 9 4 3 3 2 2 1 0 1 1 4 3 1 2 3 2 2 2 2 2 2 2 2 3 3 2 2 1 2 3 2 1 1 2 6 4 2 1 1 2 2 2 1 1 1 1 1 0 2 3 3 3 2 5 8 4 6 12 9 7 9 3 4 6 8 8 8 9 10 11 10 9 8 8 8
0 1 2 5 10 14 18 21 17 9 5 7 11 9 5 4 3 1 2 1 0 1 3 5 4 2 3 3 1 1 2 2 1 1 2 2 4 2 3 1 1 1 2 0 3 2 2 4 5 1 1 1 2 3 4 3 2 1 1 1 1 1 3 2 1 1 5 8 7 7 8 7 7 6 1 6 7 8 8 9 9 9 9 7 6 6 6 6
1 1 1 1 5 13 19 19 12 6 7 8 8 6 3 2 3 0 1 1 2 1 3 4 4 6 6 4 4 2 2 3 3 4 4 2 5 2 2 2 1 1 1 1 2 2 0 3 5 1 0 2 3 4 3 4 4 3 3 2 1 1 1 2 2 2 5 8 8 7 7 7 3 2 8 9 7 7 7 7 6 6 7 6 6 5 5 5
1 1 1 1 3 15 19 14 8 6 7 7 7 8 5 3 3 1 2 1 2 2 1 2 4 5 4 4 4 2 1 3 4 5 5 4 8 6 3 3 4 2 1 1 0 1 2 3 5 5 4 6 6 2 3 3 2 2 3 4 5 5 4 7 7 6 6 6 5 7 9 6 0 4 8 9 7 7 6 6 6 5 5 5 5 5 5 5
1 1 1 2 8 21 17 8 6 4 7 8 6 5 4 2 4 5 1 1 2 2 1 2 3 4 3 5 6 4 3 5 6 6 5 6 10 7 2 4 4 3 3 3 1 1 1 1 5 8 7 10 10 2 3 2 3 4 6 7 9 9 7 9 10 6 5 6 5 7 10 5 1 4 7 8 7 6 5 5 6 4 3 4 4 4 4 4
2 1 1 2 14 23 12 5 7 6 7 5 2 3 3 1 2 3 1 2 3 3 3 3 3 5 6 6 6 7 5 5 7 9 7 6 6 3 3 5 3 2 2 2 1 2 1 2 5 7 6 9 10 2 5 2 2 4 4 4 5 7 6 7 7 5 4 5 5 7 9 4 1 2 6 8 8 7 5 4 5 4 3 3 2 2 2 2
1 1 2 2 15 19 8 4 7 8 8 6 6 9 8 4 4 4 3 3 3 2 2 3 3 5 4 1 2 5 5 4 6 5 4 4 1 2 3 5 3 1 1 2 2 1 1 2 3 4 4 5 7 4 2 2 1 1 3 3 2 3 6 6 4 3 4 6 8 9 7 2 3 5 6 8 9 8 6 4 5 4 4 3 3 3 2 2
1 1 1 0 6 8 4 2 4 7 10 10 11 12 11 7 5 6 7 6 4 3 2 2 1 3 3 1 1 1 3 4 4 1 1 1 1 2 3 5 3 1 1 0 1 0 1 2 2 3 5 6 6 5 2 0 1 2 4 5 3 4 6 7 5 5 5 4 6 7 5 4 2 3 5 5 6 6 6 5 4 4 4 3 3 3 4 4
0 2 1 0 1 1 2 1 1 5 8 9 9 10 13 12 5 3 6 8 8 6 5 4 2 2 4 4 4 6 7 7 5 3 3 3 1 1 2 3 3 2 2 1 1 0 1 2 4 7 8 8 9 9 4 2 3 5 7 9 9 9 8 6 6 7 6 6 7 7 10 12 11 13 14 6 2 4 4 3 2 2 2 1 1 1 2 2
1 1 2 2 1 2 2 1 2 4 4 6 7 5 9 13 9 3 5 5 5 6 5 4 4 6 6 7 8 10 9 8 7 7 7 5 1 1 1 1 3 4 1 1 1 1 2 4 6 9 10 10 13 14 8 3 4 8 11 14 14 12 10 8 9 10 9 9 8 8 12 14 12 15 16 7 3 3 3 2 1 0 1 1 1 2 3 2
1 0 0 1 1 3 3 3 4 5 3 4 5 2 4 9 9 6 4 2 1 3 4 3 6 11 10 7 6 6 5 6 6 5 3 2 0 1 1 1 2 4 3 1 1 1 2 6 6 6 9 11 12 13 8 4 6 8 12 16 16 16 14 13 13 14 12 12 12 12 16 18 16 16 12 4 5 3 3 2 2 2 3 3 3 4 5 4
0 0 1 2 1 1 1 1 3 5 6 4 4 4 5 8 9 6 1 1 0 2 4 5 5 5 5 3 3 4 4 4 3 2 2 1 0 0 2 2 1 2 3 1 2 1 2 4 3 3 7 9 10 11 9 8 10 11 13 15 17 19 20 17 16 17 16 17 18 18 21 22 15 7 2 4 4 3 3 3 3 4 4 4 5 6 6 6
0 0 0 1 2 2 2 2 3 3 4 3 4 5 4 7 9 5 2 1 3 2 2 3 3 4 2 1 2 3 3 1 3 3 1 1 2 1 1 3 1 1 2 1 1 2 3 2 1 2 4 7 10 12 11 10 12 13 14 16 19 20 20 18 17 16 15 18 19 20 21 18 6 3 4 2 1 2 4 5 5 5 4 5 6 7 7 7
1 2 1 1 1 2 2 1 2 2 3 4 5 3 2 4 5 1 2 2 1 2 3 1 3 3 2 1 2 5 2 2 2 3 3 2 2 0 0 0 1 1 2 1 0 2 3 2 2 3 5 7 9 10 10 10 11 13 15 18 21 19 16 16 15 13 14 15 16 16 14 8 1 4 1 1 1 4 6 6 6 6 5 5 6 8 9 8
2 2 2 0 0 2 3 2 3 3 3 3 3 2 2 2 0 2 3 2 4 3 3 3 4 2 3 4 3 2 3 3 1 1 1 1 2 2 3 3 3 3 2 1 1 1 2 2 3 3 5 8 8 4 3 5 8 10 11 13 16 16 16 15 14 15 16 14 12 10 6 1 3 3 1 2 2 4 7 7 7 7 6 6 6 8 9 9
Wind_Direction
31 28 20 18 12 10 8 2 358 356 355 347 342 339 336 338 334 332 332 330 330 329 329 331 333 333 333 332 332 332 326 317 306 265 247 267 268 244 237 241 222 204 199 183 172 163 147 161 162 156 164 154 329 338 134 4 164 221 225 240 249 249 242 198 209 213 249 288 255 192 189 235 266 237 180 231 229 238 257 258 233 223 239 239 243 252 245 247
19 18 15 11 360 358 354 348 344 342 341 339 335 331 331 329 328 329 326 326 324 322 323 324 326 326 327 327 328 331 325 317 296 259 260 255 231 251 246 239 226 200 191 183 181 171 165 179 166 165 183 189 283 40 226 196 205 230 225 247 246 247 233 185 223 221 222 272 282 260 205 226 270 292 119 258 257 239 256 266 245 234 242 240 237 237 240 234
9 4 3 357 350 345 339 338 333 333 334 335 336 332 330 328 328 327 323 322 320 319 317 316 320 321 323 324 327 334 329 314 290 265 244 192 195 257 254 228 215 194 189 191 191 186 191 178 163 172 192 215 148 120 232 169 200 232 223 251 250 248 244 208 228 231 232 271 287 278 234 232 264 275 203 261 274 260 252 263 258 248 248 245 232 216 218 218
5 355 354 347 341 336 335 336 330 334 336 340 341 333 331 330 327 324 320 318 316 316 313 313 317 318 321 324 326 336 331 302 279 174 149 145 149 190 244 222 197 190 191 195 194 191 185 149 152 167 206 216 134 191 228 190 198 187 203 249 261 252 258 231 220 235 242 269 276 276 284 270 270 214 224 249 274 265 251 253 254 259 266 267 255 207 193 210
358 352 351 341 338 337 337 340 342 345 347 349 341 333 333 329 325 321 319 316 315 315 313 314 317 318 321 321 324 336 332 306 208 148 158 159 358 35 269 216 191 188 188 191 179 168 152 140 146 136 222 226 165 198 224 187 170 227 224 249 261 233 265 251 211 232 237 224 261 265 278 285 295 234 229 227 250 260 260 265 263 269 278 278 277 242 184 212
357 355 350 345 344 342 345 351 356 359 356 352 338 334 331 324 321 316 315 313 311 312 312 315 316 318 320 321 321 325 305 294 257 179 200 251 279 300 267 204 187 187 188 185 159 154 150 148 178 186 210 238 208 218 226 159 175 255 241 241 253 239 252 262 176 187 187 213 246 255 286 302 273 266 243 217 236 253 263 275 276 279 280 275 275 256 219 222
358 359 353 349 345 343 351 356 1 1 355 349 339 336 328 322 317 311 309 305 304 305 306 310 312 314 319 327 317 228 212 261 268 252 255 262 268 278 238 199 187 188 185 176 158 164 163 166 204 199 207 240 222 222 208 158 191 249 258 249 253 243 248 261 249 185 204 237 250 276 303 282 263 274 263 221 234 252 261 270 272 276 277 268 260 252 244 236
357 358 352 348 346 348 357 360 1 358 353 348 340 335 327 322 314 307 304 299 300 299 300 303 305 311 317 322 215 244 203 245 267 271 270 263 260 252 218 192 187 189 185 184 174 172 170 186 202 166 225 239 208 209 174 205 214 224 250 260 253 245 253 263 260 230 239 250 252 275 276 266 264 285 282 255 246 251 258 264 266 270 271 261 257 255 252 248
358 355 353 351 351 355 2 4 3 0 357 351 341 336 329 322 313 306 302 297 297 295 297 299 298 304 305 295 202 263 231 250 270 273 273 262 251 234 204 192 192 189 187 196 185 173 179 201 202 189 240 238 190 214 173 221 233 215 242 268 273 272 271 269 266 244 237 246 218 234 258 263 269 312 279 266 252 250 252 258 263 266 267 260 256 254 250 252
358 356 357 359 2 4 8 7 6 5 359 352 345 340 331 323 315 308 303 299 297 294 294 293 291 291 282 198 215 264 257 267 272 267 273 255 238 216 200 202 196 190 187 194 189 184 194 206 179 174 266 200 205 212 168 216 253 216 262 287 279 277 280 262 262 253 232 248 214 218 257 264 260 104 270 272 226 235 244 256 263 261 263 263 255 250 248 250
358 359 3 11 14 12 13 11 10 7 359 354 346 338 330 323 315 309 305 300 296 293 291 288 284 272 240 185 236 263 261 264 267 264 269 247 227 210 205 208 199 195 188 186 201 202 211 187 134 125 267 171 194 197 199 237 322 3 324 295 279 278 281 255 252 251 219 247 217 211 255 266 250 197 253 263 177 193 252 267 270 262 261 264 258 252 245 245
357 2 10 17 19 16 16 13 11 5 359 353 343 337 329 321 315 310 306 301 297 291 288 282 269 245 213 226 245 250 249 248 256 263 266 249 224 210 208 211 205 203 199 197 217 215 216 170 158 182 220 149 195 221 231 281 1 320 303 290 289 289 284 266 254 243 203 224 172 183 248 257 234 229 245 256 256 246 261 268 272 268 265 267 267 262 253 249
359 7 16 19 20 20 16 13 10 4 360 352 343 338 328 322 317 313 311 306 298 289 283 271 245 212 214 262 241 239 248 246 252 260 260 249 228 215 213 215 210 209 215 224 238 225 215 186 182 211 175 192 239 113 159 107 101 277 258 277 296 290 283 264 220 199 208 200 149 169 258 261 234 240 250 254 239 245 256 259 266 268 268 269 269 267 264 258
6 20 23 20 21 19 14 12 8 3 0 353 345 338 330 325 321 322 324 316 306 293 279 241 201 173 197 265 251 235 249 246 249 250 249 241 223 211 210 213 210 212 221 226 248 243 207 185 169 182 175 235 279 81 230 198 161 278 277 226 273 273 273 239 139 141 246 192 158 190 260 270 260 264 267 263 144 249 264 265 267 267 269 269 265 265 267 262
30 35 25 19 20 15 13 10 5 2 1 355 347 340 334 327 330 337 337 331 328 309 192 148 164 158 231 268 255 253 254 245 236 237 245 232 212 202 193 194 198 204 212 218 234 198 176 167 150 191 195 222 273 259 263 280 228 261 273 254 231 237 262 274 248 228 255 252 166 203 256 264 256 271 278 356 106 241 268 273 274 272 270 267 265 262 263 268
41 36 23 18 16 12 10 6 2 359 360 356 347 342 338 336 348 356 9 25 45 96 110 138 154 162 286 265 236 264 253 225 221 238 243 219 213 202 163 163 160 163 162 143 138 130 142 154 163 269 247 222 236 249 265 280 261 225 239 263 256 256 277 289 282 253 236 178 197 220 256 275 255 273 282 276 203 244 265 275 276 276 276 271 267 261 258 267
35 29 18 12 11 9 3 359 358 356 358 357 347 342 344 353 6 38 60 63 76 92 101 139 142 155 268 244 268 276 182 199 213 242 220 200 205 187 151 131 113 119 112 103 120 122 120 154 181 301 214 241 234 237 261 261 258 235 222 248 256 257 274 292 290 304 152 189 226 228 242 262 263 273 282 281 280 276 273 275 275 276 276 271 267 265 261 263
356 1 5 1 357 356 351 351 354 352 355 355 346 341 354 1 24 88 77 65 72 91 101 121 145 236 233 206 276 298 35 81 204 134 169 168 171 173 154 123 127 129 122 114 137 148 183 155 211 232 210 231 218 213 239 240 249 260 252 263 278 256 250 268 276 301 289 260 262 250 249 260 265 266 270 274 278 280 277 274 273 272 271 271 271 270 268 267
295 338 353 348 340 339 341 346 353 353 354 357 349 336 19 358 302 144 80 31 42 210 243 163 193 273 297 264 283 300 300 222 161 132 139 145 152 154 132 119 132 140 150 163 177 175 178 150 182 221 214 225 221 212 227 242 260 289 305 287 288 284 265 267 271 274 284 280 276 269 269 277 280 276 274 275 275 275 274 274 276 275 273 275 272 268 271 278
272 341 347 340 333 331 336 344 355 356 356 360 354 325 204 353 277 215 310 285 261 261 273 255 226 252 284 279 312 341 274 211 137 128 141 145 147 140 112 114 125 157 186 171 164 156 195 207 195 208 225 236 234 226 238 260 303 316 295 280 276 281 278 274 277 278 281 279 275 274 280 285 287 284 280 276 272 267 269 274 279 280 279 275 271 274 293 310
262 320 333 327 324 324 329 339 355 358 358 2 0 345 95 356 301 330 326 274 260 250 248 246 236 245 260 294 43 45 9 275 98 108 146 146 150 160 148 150 164 185 184 96 101 106 209 227 213 223 236 252 267 264 263 271 284 274 269 278 273 272 276 275 277 285 304 285 279 280 284 290 292 285 276 267 266 267 270 275 277 275 271 269 277 317 17 349
274 288 298 303 310 315 318 328 347 353 355 8 24 54 70 342 272 287 304 282 272 245 235 248 288 265 265 284 283 348 354 281 237 117 151 146 156 203 159 160 191 194 144 130 161 182 218 230 226 232 239 272 327 275 273 261 262 265 263 272 272 275 283 277 266 279 323 297 293 299 294 294 286 277 273 268 263 264 267 264 261 262 264 277 340 5 351 324
272 275 277 286 301 309 312 322 338 343 348 13 44 78 54 277 241 222 224 280 283 255 220 239 261 256 267 276 237 203 218 243 240 201 167 161 176 197 165 185 197 169 160 188 217 233 236 225 227 237 234 237 247 234 251 268 261 248 247 264 274 277 282 277 253 294 349 274 289 303 296 286 275 267 272 277 261 255 262 256 251 255 272 313 346 335 319 314
270 275 275 278 289 300 309 319 324 324 337 13 50 63 30 289 202 179 211 268 277 278 167 212 243 248 273 297 198 189 203 219 224 218 170 171 172 151 182 201 187 188 202 206 218 237 249 209 172 234 217 224 244 240 237 257 260 240 232 250 266 267 267 273 285 320 312 275 283 314 301 279 264 211 58 302 252 251 262 256 255 269 5 357 7 356 311 291
265 271 274 275 280 289 300 309 305 289 309 341 240 347 22 55 153 157 226 291 260 261 161 193 230 215 211 103 145 188 208 176 201 302 161 182 167 136 172 192 196 221 213 209 220 244 257 210 131 189 192 205 228 238 231 233 261 259 222 226 248 263 269 275 290 318 308 276 57 350 319 287 169 100 11 302 288 280 266 260 272 11 54 45 52 33 280 290
259 263 268 270 272 279 291 296 265 260 304 279 235 336 7 11 133 165 219 302 247 221 127 186 190 160 167 102 102 187 188 162 43 29 143 200 211 170 200 148 192 251 196 191 222 249 257 206 130 201 195 180 203 243 234 213 249 269 220 217 241 258 265 272 290 304 293 290 41 20 309 285 254 241 259 272 274 268 263 269 294 351 20 18 18 343 344 20
263 266 267 265 262 254 252 259 240 250 304 273 285 347 334 339 121 175 237 290 266 157 109 210 200 172 177 121 198 194 182 133 91 80 110 216 198 185 235 193 183 210 142 170 246 221 208 163 96 174 190 186 210 246 226 188 226 267 53 185 239 257 262 262 280 267 276 313 308 188 229 273 282 253 220 241 246 250 260 283 324 16 30 28 29 18 13 20
266 270 267 260 245 228 218 232 243 237 283 305 340 325 315 310 180 189 282 290 302 99 117 101 130 142 137 130 186 125 3 353 136 94 39 286 202 124 243 231 213 182 161 198 242 212 168 180 174 173 183 205 217 240 172 175 217 297 53 48 141 271 268 222 255 263 277 312 284 189 190 262 282 250 132 222 237 240 256 289 6 45 47 35 36 28 16 24
246 252 252 230 215 217 223 231 231 236 279 297 305 307 318 253 220 224 268 269 309 96 75 97 143 121 92 164 153 77 82 3 31 39 40 204 218 36 257 250 219 189 187 220 246 257 159 192 195 181 196 223 215 158 141 183 211 76 110 98 87 97 68 149 262 286 281 280 265 180 178 253 289 237 138 206 246 245 253 167 66 79 77 41 34 29 21 32
217 214 194 174 184 208 222 237 240 242 260 264 272 310 306 234 226 244 235 237 316 88 96 158 174 121 134 173 173 68 169 130 68 80 72 121 141 33 313 273 164 204 213 247 258 257 125 73 296 208 222 235 121 77 83 179 150 121 153 121 81 180 94 173 263 317 275 272 244 176 187 226 286 323 151 204 264 342 346 3 356 72 92 50 30 31 25 31
235 230 194 170 181 193 193 249 255 239 240 247 260 297 265 241 168 228 238 244 336 181 141 155 171 130 163 187 186 145 170 172 143 169 169 139 166 185 232 220 194 211 221 233 248 242 171 173 222 226 223 125 109 109 46 77 112 156 141 330 295 262 236 213 192 137 251 271 231 154 193 222 245 245 99 308 349 346 326 345 339 2 60 51 32 39 33 30
235 230 212 191 195 196 195 224 308 218 216 213 214 237 238 254 232 223 208 81 273 212 163 168 190 159 156 171 206 155 162 184 174 187 185 172 195 193 212 217 187 253 261 224 225 236 196 199 198 170 220 185 178 174 118 113 158 174 152 272 289 305 295 250 226 202 246 269 70 63 287 237 245 252 265 277 287 30 17 345 341 5 53 57 43 47 43 36
236 232 218 205 206 208 215 217 187 190 193 174 174 158 126 236 242 206 161 189 222 130 113 102 99 135 142 173 209 154 181 213 172 190 187 168 225 221 227 232 190 253 268 243 273 268 242 212 152 167 236 187 183 193 205 190 170 176 179 174 189 234 274 266 267 276 270 274 96 137 249 253 265 269 247 259 293 13 5 346 8 55 73 64 52 48 45 40
250 245 230 218 213 215 221 214 208 216 188 166 164 143 194 234 244 84 189 217 268 10 121 110 106 133 166 210 239 171 224 239 156 176 190 164 214 234 229 226 197 217 257 250 272 248 257 279 174 173 182 165 186 207 200 123 159 183 173 165 194 196 237 261 252 258 275 279 161 153 205 263 283 340 213 250 26 21 3 27 62 73 70 58 53 47 42 39
265 259 247 236 222 217 216 204 202 209 189 163 156 194 218 233 222 194 224 225 259 276 211 136 135 210 223 211 239 208 231 244 127 139 203 191 215 231 221 218 190 185 204 236 251 187 237 263 166 131 33 163 185 210 107 101 168 188 114 172 235 205 197 244 246 240 281 296 240 198 229 267 278 297 282 270 82 70 51 57 65 62 58 54 50 43 39 37
275 269 258 245 232 222 211 199 195 196 183 156 183 215 227 237 208 204 221 194 208 190 255 228 185 240 257 226 190 187 198 219 145 160 207 211 247 235 228 262 184 184 188 205 234 221 242 257 96 72 281 175 173 356 101 163 235 147 151 200 227 121 172 246 259 217 279 281 252 236 258 267 278 283 267 243 114 83 61 56 61 58 58 59 52 43 39 38
283 268 249 237 234 223 209 200 192 185 178 175 207 221 226 233 234 227 189 96 215 91 129 242 220 213 250 239 195 150 156 189 159 191 209 208 243 208 209 269 177 195 214 260 262 252 278 278 209 157 216 165 33 334 77 344 341 150 183 219 140 41 138 231 264 186 206 250 247 242 259 271 284 281 194 128 103 83 68 64 64 53 52 54 49 43 37 36
297 259 247 237 229 216 203 199 189 177 168 194 220 232 227 207 237 230 148 133 285 71 153 237 242 204 242 254 236 121 155 190 140 170 216 223 221 158 161 278 84 172 286 352 264 304 335 284 264 168 210 113 102 249 227 130 32 131 238 308 37 239 234 200 218 219 227 248 242 219 245 259 259 261 261 91 78 70 63 59 55 46 46 46 42 40 34 33
296 199 259 236 213 199 191 188 181 171 180 207 222 231 226 227 241 185 136 138 173 140 223 237 240 250 255 249 243 103 171 207 160 214 220 229 238 143 105 296 70 69 345 198 231 301 20 273 276 82 78 84 132 218 221 170 141 134 232 277 27 259 257 232 210 232 234 251 255 229 231 241 251 265 72 83 71 64 56 50 48 44 47 47 43 39 31 32
180 186 219 241 197 185 177 175 176 188 203 212 225 225 217 260 273 182 104 255 238 226 244 229 220 242 253 249 252 262 221 213 229 250 240 249 278 288 68 6 346 70 31 120 237 287 124 252 265 246 133 262 214 201 208 194 183 198 213 218 217 203 242 266 260 216 231 252 259 255 245 234 253 44 95 103 89 84 81 76 68 51 50 51 46 42 34 35
191 195 166 7 164 163 160 167 188 205 211 223 238 238 238 260 275 306 44 174 236 285 299 226 225 244 258 264 254 229 177 223 234 249 246 245 261 266 57 23 329 344 3 331 247 261 255 244 256 262 247 248 250 177 163 215 217 236 243 235 248 254 261 269 253 214 218 241 240 254 258 244 334 61 98 108 103 105 102 100 98 76 61 54 42 40 37 34
199 158 126 33 158 159 157 176 200 201 221 225 227 232 239 261 259 260 285 141 218 255 255 225 234 242 243 257 262 255 252 257 254 251 245 241 249 255 16 1 321 343 335 297 328 14 341 260 253 261 251 256 275 324 102 231 248 248 250 250 260 262 255 261 264 258 248 244 236 254 255 242 68 69 100 109 113 110 101 103 106 101 92 76 56 47 42 40
189 162 40 79 166 167 165 188 197 206 224 222 221 231 229 252 251 239 217 194 217 226 225 221 229 238 241 251 258 256 255 253 251 251 251 252 248 256 348 347 344 5 334 288 309 25 5 254 256 261 258 266 273 273 89 81 228 228 243 258 268 270 273 272 272 285 275 247 249 260 253 235 119 115 112 112 116 110 102 106 107 106 101 88 83 77 59 49
153 181 3 120 174 181 188 196 197 210 217 216 232 236 237 246 240 232 225 219 210 190 208 233 242 238 240 252 243 244 249 247 248 250 246 255 238 96 18 2 30 59 339 290 277 316 287 265 282 284 273 267 257 236 132 88 98 272 292 310 314 311 322 317 286 270 255 230 234 250 260 247 143 155 149 137 134 128 120 111 103 98 84 68 62 50 33 22
92 174 338 311 189 198 221 220 206 212 214 220 230 235 240 245 238 227 229 234 223 180 205 243 246 228 227 134 83 248 245 237 249 265 148 232 252 87 16 359 18 108 134 303 306 308 251 258 273 279 270 266 270 272 266 98 33 337 291 282 281 288 305 310 293 277 268 247 245 256 277 290 253 249 243 192 144 121 115 108 97 94 84 66 54 34 18 11
141 170 167 260 272 264 258 305 238 216 215 218 227 237 238 238 243 203 212 234 233 216 229 246 219 209 226 217 232 255 246 224 221 241 244 239 214 99 19 1 22 68 137 125 5 153 217 240 229 245 261 268 274 280 285 298 281 277 277 275 273 274 275 271 265 265 275 292 280 263 269 279 286 289 283 277 40 55 80 93 86 99 105 83 63 26 358 345
249 180 158 157 181 223 233 249 210 210 213 209 215 240 236 233 243 229 201 221 224 209 224 239 208 212 222 219 231 249 251 231 220 234 252 254 215 71 8 61 40 13 334 272 322 196 208 246 231 238 255 261 269 278 287 304 272 270 278 277 274 274 265 253 255 261 275 287 277 264 271 274 276 281 285 299 38 41 51 66 57 222 222 239 274 289 294 304
249 140 95 320 239 203 213 219 196 200 212 206 211 266 248 223 227 229 209 178 145 191 211 224 214 218 224 220 215 224 236 232 224 216 225 259 195 46 343 135 86 6 348 293 302 168 228 262 253 255 267 266 274 282 284 285 277 269 270 272 276 277 268 259 257 258 263 266 267 274 277 275 276 281 288 348 58 35 16 13 330 296 260 243 259 278 285 298
216 132 352 347 347 156 158 102 134 185 209 208 217 242 239 226 227 226 175 88 255 200 210 218 203 204 225 228 197 212 230 238 243 216 153 141 205 210 292 269 174 50 37 28 314 305 234 257 260 285 285 280 281 284 285 287 282 273 268 269 271 271 270 269 267 264 263 261 262 268 269 271 279 296 4 62 46 3 350 330 312 310 294 274 269 274 276 279
321 321 40 63 79 85 62 63 99 170 208 216 234 234 216 226 236 234 73 42 242 232 237 221 164 128 118 120 168 234 250 246 268 263 183 203 240 191 249 267 218 60 12 340 299 296 264 257 27 1 304 284 278 281 286 287 282 279 277 271 265 265 268 269 268 266 264 262 260 261 263 266 276 71 83 61 352 336 329 318 314 311 297 284 278 278 277 277
62 22 28 98 136 133 118 92 124 180 215 216 227 236 214 227 237 219 61 40 264 266 286 219 152 129 123 141 241 261 252 122 201 215 157 193 274 334 121 274 63 7 325 281 278 311 281 275 350 332 288 272 279 287 291 293 290 281 272 263 258 258 259 258 258 259 259 263 265 264 264 264 155 108 83 350 351 322 318 316 312 305 290 275 276 281 282 281
116 29 27 63 182 148 137 128 156 192 219 213 207 209 209 226 189 150 183 106 66 44 30 92 131 157 225 235 245 227 148 120 140 169 142 233 292 290 247 249 247 240 236 209 273 263 228 244 296 292 272 274 284 302 330 320 298 273 258 254 253 252 254 253 253 256 259 262 269 272 271 264 121 127 30 353 333 308 314 315 311 310 303 287 279 282 283 284